Regional Weather Roundup
Issued by NWS

Home | Current Version | Previous Version | Graphics & Text | Print | Product List | Glossary Off
Versions: 1 2 3 4 5 6 7 8 9 10 11 12 13 14 15 16 17 18 19 20 21 22 23 24 25 26 27

000
ASUS43 KDMX 221207
RWRIA

WEATHER ROUNDUP FOR IOWA
NATIONAL WEATHER SERVICE DES MOINES IA
700 AM CDT WED OCT 22 2014

NOTE: "FAIR" INDICATES FEW OR NO CLOUDS BELOW 12,000 FEET WITH NO
SIGNIFICANT WEATHER AND/OR OBSTRUCTIONS TO VISIBILITY.

* - THESE STATIONS ARE NOT NWS STATIONS...THUS NOT UNDER NWS
QUALITY CONTROL.  THEY ALSO DO NOT REPORT WEATHER SUCH
AS PRECIPITATION OR FOG.

IAZ001>003-012>014-020>022-031>034-043>046-221300-
   NORTHWEST IOWA

CITY           SKY/WX    TMP DP  RH WIND       PRES   REMARKS
CARROLL *      CLOUDY    46  41  81 SE10      30.15F
CHEROKEE *     PTCLDY    49  43  81 S7        30.10S
DENISON *      CLOUDY    52  43  71 SE9G15    30.10S
LE MARS *      PTCLDY    54  45  71 S15       30.06R
ORANGE CITY *  PTCLDY    54  45  71 SE10      30.06R
SHELDON *      PTCLDY    50  43  76 S17G28    30.06S
SIOUX CITY     CLEAR     54  44  69 SE14      30.06S
6HR MIN TEMP:  50; 6HR MAX TEMP:  55;

SPENCER        MOCLDY    49  40  71 SE16G24   30.11F
6HR MIN TEMP:  47; 6HR MAX TEMP:  50;

STORM LAKE *   PTCLDY    46  41  81 SE18      30.11F
$$

IAZ055>058-069>071-079>083-090>094-221300-
   SOUTHWEST IOWA

CITY           SKY/WX    TMP DP  RH WIND       PRES   REMARKS
ATLANTIC *     CLOUDY    52  43  71 S10       30.15S
AUDUBON *      PTCLDY    50  39  66 SE9       30.16S
CLARINDA *     CLOUDY    54  43  66 SE7G13    30.18S
COUNCIL BLFS * MOCLDY    52  46  82 SE16      30.10S
CRESTON *      CLOUDY    48  41  76 SE14      30.20R
HARLAN  *      CLEAR     52  45  76 SE10      30.16S
LAMONI         MOCLDY    46  40  79 SE9       30.22R
6HR MIN TEMP:  46; 6HR MAX TEMP:  49;

RED OAK *      MOCLDY    54  45  71 SE8       30.15S
SHENANDOAH *   CLOUDY    54  45  71 SE9       30.15R
$$

IAZ047>049-059>061-072>074-084-221300-
   CENTRAL IOWA

CITY           SKY/WX    TMP DP  RH WIND       PRES   REMARKS
AMES           CLEAR     41  38  89 SE7       30.23R
6HR MIN TEMP:  41; 6HR MAX TEMP:  45;

ANKENY *       CLEAR     43  41  93 SE9       30.23S
CHARITON *     CLOUDY    43  39  87 SE12      30.24R
DES MOINES     PTCLDY    44  38  79 SE10      30.23R
6HR MIN TEMP:  44; 6HR MAX TEMP:  50;

GRINNELL*      CLEAR     38  37  94 E8        30.26S WCI  32
KNOXVILLE *    CLEAR     41  37  87 SE7       30.24R
MARSHALLTOWN   CLEAR     40  37  89 SE12      30.25R WCI  33
6HR MIN TEMP:  38; 6HR MAX TEMP:  43;

PELLA *        CLEAR     39  38  94 SE7       30.27R WCI  34
PERRY *          N/A     45  39  81 SE9       30.20S
$$

IAZ004>006-015-016-023>025-035-036-221300-
   NORTH CENTRAL IOWA

CITY           SKY/WX    TMP DP  RH WIND       PRES   REMARKS
ALGONA *       CLOUDY    45  39  81 SE14G20   30.18R
CLARION *      CLEAR     41  39  93 SE13G18   30.21S
ESTHERVILLE    CLOUDY    44  38  79 SE18      30.13F
6HR MIN TEMP:  42; 6HR MAX TEMP:  46;

FORT DODGE *   CLOUDY    45  37  76 SE9       30.20R
MASON CITY     PTCLDY    38  37  97 SE12      30.24R WCI  30
6HR MIN TEMP:  38; 6HR MAX TEMP:  41;

FOREST CITY *  PTCLDY    39  39 100 SE12      30.21S WCI  32
IOWA FALLS *     N/A     41  37  87 SE14      30.24S
$$

IAZ007>011-017>019-026>030-037>042-050>054-066-221300-
   NORTHEAST IOWA

CITY           SKY/WX    TMP DP  RH WIND       PRES   REMARKS
CEDAR RAPIDS   CLEAR     34  34 100 E7        30.29R WCI  28
6HR MIN TEMP:  34; 6HR MAX TEMP:  39;

CHARLES CITY * CLEAR     37  36  93 SE9G16    30.27S WCI  31
CLINTON *      CLEAR     34  30  86 E8        30.35R WCI  27
DECORAH *      CLEAR     36  36 100 SE6       30.29R WCI  31
DUBUQUE        CLEAR     36  34  92 SE6       30.31R WCI  31
6HR MIN TEMP:  35; 6HR MAX TEMP:  38;

MONTICELLO *   CLEAR     32  32 100 CALM      30.31R
OELWEIN *      CLEAR     36  36 100 SE9       30.30R WCI  29
WATERLOO       CLEAR     36  34  92 SE9       30.27S WCI  29
6HR MIN TEMP:  35; 6HR MAX TEMP:  41;

$$

IAZ064-065-067-068-078-221300-
   EAST CENTRAL IOWA

CITY           SKY/WX    TMP DP  RH WIND       PRES   REMARKS
DAVENPORT      PTCLDY    35  32  88 E5        30.32R WCI  31
6HR MIN TEMP:  34; 6HR MAX TEMP:  38;

IOWA CITY      CLEAR     36  34  92 CALM      30.32R
6HR MIN TEMP:  35; 6HR MAX TEMP:  43;

MT. PLEASANT * CLEAR     34  34 100 E5        30.30S FOG     WCI  30
MUSCATINE *    CLEAR     34  32  93 CALM      30.33R
QUAD CITIES    PTCLDY    34  31  88 E3        30.32R
6HR MIN TEMP:  31; 6HR MAX TEMP:  37;

$$

IAZ062-063-075>077-085>089-095>099-221300-
   SOUTHEAST IOWA

CITY           SKY/WX    TMP DP  RH WIND       PRES   REMARKS
BURLINGTON     CLEAR     40  37  89 E6        30.30R
6HR MIN TEMP:  39; 6HR MAX TEMP:  44;

FAIRFIELD *      N/A     37  36  93 SE7       30.29R WCI  32
FORT MADISON * CLEAR     41  39  93 E3        30.31R
KEOKUK *       CLEAR     41  39  93 SE6       30.29R
OSKALOOSA *      N/A     36  35  96 SE6       30.27S WCI  31
CENTERVILLE *  CLEAR     39  39 100 SE6       30.27R WCI  35
WASHINGTON *   CLEAR     34  34 100 E6        30.29S FOG     WCI  29
$$

ABBREVIATIONS USED IN REMARKS
   TC - TEMPERATURES IN CELSIUS
  WCI - WIND CHILL INDEX
   HX - HEAT INDEX
  VSB - VISIBILITY
$$




USA.gov is the U.S. government's official web portal to all federal, state and local government web resources and services.